Dewpoint
-6 -1 8 7 12 10 11 9 5 5 7 5 3 3 10 12 8 14 11 12 13 5 0 1 -0 3 6 12 11 9 11 12 12 12 8 2 -2 -5 -10 -13 -15 -16 -16 -16 -16 -16 -15 -15 -14
-4 8 6 8 12 13 10 7 6 5 4 5 5 6 8 13 13 11 11 12 13 8 3 2 13 13 11 9 10 11 12 12 9 6 2 -4 -10 -15 -17 -17 -17 -16 -16 -15 -15 -15 -15 -14 -14
-1 7 6 10 12 12 10 6 5 6 5 5 7 9 12 13 12 11 12 14 14 9 10 10 13 12 8 7 11 12 10 8 5 -0 -7 -13 -16 -16 -16 -16 -16 -15 -14 -14 -14 -14 -14 -14 -15
7 5 5 9 8 9 8 6 2 7 6 6 9 13 13 13 12 12 13 13 11 12 13 10 12 9 8 12 12 10 7 3 -3 -9 -15 -15 -15 -15 -15 -14 -14 -14 -14 -15 -15 -15 -15 -15 -14
7 3 5 6 8 5 5 5 4 9 6 6 8 13 13 13 12 13 13 12 12 13 13 10 8 5 12 12 10 8 3 -3 -10 -14 -15 -15 -15 -13 -13 -14 -14 -14 -14 -14 -14 -14 -14 -14 -13
6 3 2 3 2 4 4 7 6 10 9 7 11 13 14 13 12 12 13 12 11 13 12 10 7 11 12 11 8 5 -1 -10 -13 -13 -14 -14 -13 -13 -13 -13 -13 -13 -14 -14 -14 -14 -13 -12 -11
7 3 3 -0 -1 1 2 6 6 12 12 8 12 13 14 13 12 12 12 11 10 11 9 9 10 13 12 9 7 3 -4 -12 -13 -13 -13 -13 -13 -12 -12 -13 -13 -14 -14 -14 -13 -12 -11 -10 -9
5 5 3 -1 -1 -1 -0 6 5 8 8 8 11 14 14 12 13 12 11 9 12 12 10 9 13 13 11 9 7 2 -11 -12 -12 -13 -13 -12 -11 -12 -12 -13 -13 -13 -13 -13 -11 -10 -9 -9 -8
3 7 6 -0 -2 -3 -2 6 5 7 10 9 11 12 11 12 12 11 9 11 12 12 12 13 13 12 10 9 6 -2 -12 -11 -12 -12 -12 -11 -11 -12 -11 -12 -12 -12 -12 -12 -10 -8 -8 -8 -5
4 6 4 -1 -4 2 2 7 5 9 12 12 13 12 11 13 12 9 10 12 12 13 14 13 13 11 10 9 4 -6 -11 -11 -12 -12 -11 -10 -11 -11 -11 -11 -11 -11 -11 -12 -11 -8 -6 -5 -3
3 5 1 -3 3 3 2 5 4 10 12 11 13 14 12 13 10 9 11 12 11 12 13 13 12 11 10 9 3 -7 -11 -10 -11 -11 -10 -10 -10 -10 -10 -10 -10 -11 -9 -9 -8 -6 -5 -4 -3
2 -0 -0 -1 2 3 3 1 2 7 10 10 13 13 13 12 10 10 12 11 12 13 13 12 12 11 10 8 2 -7 -10 -10 -10 -11 -11 -10 -10 -9 -10 -10 -10 -10 -11 -10 -10 -7 -6 -5 -2
4 1 -1 -2 -0 1 1 2 2 2 10 10 11 13 13 11 10 11 11 13 13 12 12 11 11 11 10 7 3 -5 -9 -10 -10 -11 -11 -11 -10 -10 -10 -10 -10 -10 -11 -11 -11 -8 -6 -5 -3
4 3 1 -1 -1 -1 1 2 1 2 7 11 12 13 13 11 11 12 13 13 13 13 12 12 11 12 10 8 5 -3 -9 -9 -9 -10 -10 -10 -10 -10 -10 -10 -11 -11 -10 -11 -11 -10 -7 -5 -1
3 4 2 1 -1 -1 0 2 2 2 10 11 11 11 13 11 12 12 12 13 13 13 12 12 11 11 11 9 7 -0 -8 -8 -8 -9 -10 -10 -9 -9 -10 -10 -11 -11 -10 -10 -11 -11 -9 -6 1
3 3 6 1 -1 -2 -0 4 -1 1 9 11 11 13 12 12 12 12 13 13 13 13 12 12 11 10 11 10 8 3 -5 -7 -7 -7 -9 -9 -9 -9 -10 -10 -10 -12 -11 -9 -10 -11 -11 -8 -4
3 5 4 3 -1 -3 1 1 -1 -2 10 10 11 11 12 12 13 12 13 12 14 11 11 11 11 11 11 10 9 5 -1 -5 -5 -6 -8 -9 -9 -8 -9 -9 -10 -12 -10 -8 -9 -10 -10 -10 -7
5 4 3 2 -1 -3 -3 0 -2 7 9 10 10 12 11 10 8 13 13 14 13 11 11 11 11 11 10 10 9 6 2 -2 -3 -4 -6 -8 -8 -8 -8 -9 -10 -12 -10 -8 -8 -9 -8 -8 -10
4 4 4 2 1 -2 -2 -3 -2 3 9 9 10 11 12 13 12 12 13 14 13 12 11 10 11 10 9 9 9 7 6 3 -0 -3 -4 -7 -7 -8 -8 -8 -10 -11 -11 -9 -8 -8 -7 -5 -8
4 4 3 2 0 -1 -1 -2 -5 -3 8 9 9 11 12 13 13 12 12 13 13 11 10 10 11 10 10 9 10 8 7 8 5 -0 -3 -5 -7 -7 -7 -8 -9 -12 -12 -11 -9 -8 -6 -4 -5
3 4 3 3 1 -1 -1 0 -3 -5 3 8 9 11 11 12 13 13 13 13 13 11 10 10 10 10 11 11 10 7 7 8 8 3 -1 -4 -6 -7 -7 -8 -9 -12 -12 -11 -10 -9 -8 -6 -2
4 1 2 3 5 6 0 4 -1 -5 -5 5 8 9 10 11 12 11 12 13 11 11 11 10 10 9 10 10 11 9 8 8 7 4 1 -3 -6 -7 -7 -8 -10 -12 -12 -10 -10 -10 -8 -7 -7
3 0 1 2 4 5 5 6 1 -3 -5 -3 7 9 10 11 12 12 10 10 12 12 11 10 10 9 9 10 10 9 8 7 7 5 2 -4 -6 -6 -7 -8 -10 -12 -11 -10 -9 -9 -8 -7 -6
-0 0 1 2 5 6 5 5 5 -2 -4 -5 3 7 9 10 11 12 6 9 12 12 11 10 10 10 9 9 9 8 8 7 6 5 -0 -4 -5 -6 -7 -9 -12 -11 -10 -9 -8 -8 -8 -7 -7
1 2 7 6 8 6 2 4 3 1 -3 -3 -5 4 7 9 10 11 11 12 10 11 12 11 10 10 9 9 9 8 8 7 7 3 -3 -4 -5 -6 -8 -11 -12 -10 -9 -8 -8 -8 -8 -7 -7
3 4 6 7 5 5 2 4 3 -2 -3 -3 -3 -2 5 8 9 11 12 12 11 11 11 11 11 10 10 9 9 8 8 7 5 -1 -4 -5 -5 -6 -9 -12 -10 -9 -9 -9 -9 -8 -8 -7 -6
3 4 2 7 3 3 3 1 -2 -3 -3 -2 -2 -3 0 9 9 10 11 11 11 11 11 10 10 10 9 10 9 9 8 6 1 -4 -4 -5 -4 -7 -12 -10 -10 -10 -10 -10 -10 -9 -8 -7 -5
3 1 4 6 7 6 3 1 4 -1 -1 -1 -2 -2 -2 7 9 10 11 11 11 12 11 10 10 11 10 10 10 9 7 3 -3 -4 -5 -5 -6 -11 -11 -10 -10 -11 -11 -11 -10 -9 -7 -7 -6
4 3 2 2 4 5 4 3 -3 -1 -1 0 -2 -3 -3 1 5 8 9 10 11 11 11 10 10 11 10 10 9 9 6 1 -3 -4 -5 -5 -9 -12 -10 -11 -12 -12 -11 -11 -10 -10 -9 -8 -7
2 2 2 6 4 3 2 3 -3 -5 -2 -2 -3 -5 -4 -3 -2 -0 5 8 10 11 11 10 10 10 10 9 9 8 6 2 -2 -4 -4 -7 -12 -11 -11 -11 -12 -12 -13 -13 -13 -13 -12 -11 -10
Wind_Speed
13 6 0 5 2 5 11 12 16 7 7 7 15 5 12 19 2 6 25 20 21 22 20 18 17 16 16 15 12 11 9 7 6 4 5 6 6 6 6 6 7 7 7 8 8 9 9 10 11
12 4 6 6 5 9 11 13 17 10 8 17 14 6 9 5 11 24 26 22 22 22 21 22 19 17 16 14 11 9 8 5 3 4 5 6 6 6 7 7 8 8 8 9 10 10 10 10 11
10 10 6 4 7 15 11 11 15 2 15 15 5 6 8 8 22 24 23 24 20 21 22 22 19 17 14 13 11 9 5 3 3 3 5 6 6 6 7 7 7 8 8 8 9 10 11 11 11
2 7 7 7 15 16 17 14 13 9 10 19 15 9 10 4 22 23 29 22 24 23 20 20 18 16 14 12 10 6 4 3 3 4 5 6 7 7 7 8 8 8 9 9 9 10 11 11 12
10 9 6 11 16 19 16 16 21 6 13 20 21 8 16 16 20 29 28 24 22 19 21 20 18 16 14 12 8 5 4 3 3 4 5 6 7 8 8 9 9 10 10 11 11 11 11 11 11
9 6 6 15 17 17 18 13 21 6 20 14 14 16 10 11 33 29 27 25 23 19 22 21 18 16 14 10 8 5 4 3 4 5 6 7 7 8 9 9 10 11 11 12 12 12 12 12 12
9 7 10 10 16 15 18 16 15 26 32 14 27 6 12 16 32 29 27 25 22 18 25 22 20 17 13 10 6 5 4 3 5 6 7 7 8 9 10 11 11 12 12 12 13 13 14 13 13
14 7 15 14 10 21 20 17 17 10 14 23 25 8 10 33 30 31 27 27 22 19 21 22 19 16 13 10 7 5 3 4 5 6 7 7 8 9 11 12 12 12 13 13 14 15 14 12 12
11 4 11 14 16 14 18 5 18 14 12 18 19 14 16 43 33 33 31 28 23 23 21 20 19 16 13 9 7 6 5 4 4 5 7 8 11 11 11 11 12 13 13 14 14 14 13 13 14
6 5 14 11 12 11 15 11 13 7 4 9 14 13 26 43 40 38 37 34 32 27 23 20 19 16 13 10 8 6 4 3 4 6 7 8 8 8 9 11 12 12 14 15 15 16 16 15 13
12 10 15 15 12 16 13 5 22 12 10 6 8 29 41 41 40 39 34 37 32 27 25 21 19 16 13 10 8 6 4 3 4 5 6 7 8 9 11 12 13 14 14 15 14 13 14 14 13
10 14 25 19 10 10 10 17 17 22 5 36 30 28 39 41 40 40 40 36 34 30 25 22 20 16 13 10 8 6 4 3 3 4 5 6 7 8 9 11 12 13 13 13 13 13 13 13 12
6 10 14 18 14 11 11 13 14 21 8 12 10 33 38 40 37 38 36 36 32 30 26 23 20 17 13 11 8 7 5 3 2 3 4 5 6 7 8 10 11 12 12 12 12 12 13 12 10
5 13 15 11 16 18 9 12 16 12 10 10 31 28 30 28 33 37 36 36 34 29 28 25 20 16 13 11 9 7 6 4 2 2 3 4 5 6 7 9 10 11 11 11 10 11 11 10 10
9 5 9 11 15 11 9 8 8 18 11 10 25 24 28 29 28 29 33 37 33 30 26 25 21 17 14 12 10 8 7 5 2 1 2 3 4 5 6 8 11 11 10 10 9 9 8 8 7
5 7 7 9 14 18 5 11 10 19 13 11 20 30 33 25 24 24 25 34 30 28 26 25 22 20 16 14 11 10 8 5 3 1 1 2 3 4 6 8 10 11 9 9 8 8 8 8 5
4 5 6 9 16 8 10 6 11 25 11 13 19 24 24 13 13 24 26 30 27 27 29 26 26 25 20 16 13 10 8 6 4 3 2 2 3 3 5 7 9 9 8 8 8 7 8 9 7
4 6 7 4 1 9 12 11 15 6 8 12 15 25 29 28 23 26 30 27 29 29 29 28 26 23 20 16 13 11 9 7 6 5 4 3 3 3 4 6 8 7 7 7 7 7 7 8 9
8 9 7 7 6 4 9 12 14 12 9 9 8 13 21 29 34 32 29 27 27 30 29 26 26 24 21 17 16 13 9 8 7 7 6 5 5 4 4 6 7 6 5 5 6 6 5 6 7
8 9 8 8 6 4 8 12 17 12 10 16 15 17 20 26 32 33 32 33 34 31 27 27 26 24 22 18 16 12 10 9 9 8 8 8 6 5 5 6 6 5 5 5 5 5 4 4 6
10 8 8 10 5 6 7 11 11 15 15 18 16 20 22 26 36 40 36 36 31 32 30 28 26 25 22 20 19 15 12 13 14 11 11 9 8 6 6 7 6 5 5 4 4 4 4 3 5
9 8 6 7 6 3 2 5 10 13 18 10 18 19 22 28 30 31 38 35 33 35 31 29 29 27 24 23 21 18 15 15 14 14 12 10 8 8 7 8 7 6 6 5 5 5 4 3 3
7 5 6 8 6 5 8 4 7 7 17 12 12 25 27 29 31 33 38 38 33 36 35 32 31 29 27 26 22 20 18 15 15 14 12 11 10 10 8 9 7 7 7 6 6 5 4 4 3
6 5 8 6 2 3 9 6 6 9 17 18 18 27 32 30 33 32 34 35 34 37 37 36 35 33 29 28 24 23 20 20 20 17 14 13 12 11 10 9 8 8 8 7 6 6 5 5 5
4 5 1 3 3 5 1 1 11 11 7 7 17 28 33 33 32 33 33 37 32 35 39 39 37 35 33 31 28 26 24 23 21 18 14 15 13 13 11 9 9 9 8 7 7 7 7 7 6
7 5 3 5 3 4 2 6 6 12 15 20 9 15 36 36 35 37 37 39 39 39 40 40 39 37 35 33 31 29 27 25 22 19 15 15 15 14 11 10 10 9 9 8 8 8 8 7 6
4 5 1 2 6 1 5 6 7 10 8 4 8 10 11 35 35 39 40 41 41 41 41 41 39 36 35 35 32 29 29 27 23 20 17 17 16 15 12 12 11 10 9 9 9 8 7 7 6
4 3 2 2 3 4 6 7 7 1 7 8 7 14 15 27 32 34 37 39 41 44 43 38 36 36 35 34 33 30 29 26 24 20 18 17 16 15 14 13 12 10 10 9 8 7 7 6 6
4 3 5 2 4 3 3 5 2 2 4 8 4 17 18 20 20 30 33 34 35 36 37 36 37 37 37 36 35 32 29 26 25 21 19 17 17 16 15 14 12 11 9 8 7 7 6 6 5
11 8 10 3 5 4 3 9 8 3 3 3 4 5 2 5 9 15 20 26 33 36 35 35 35 38 39 37 34 33 29 27 26 21 20 19 18 17 16 14 13 11 9 9 8 7 6 6 6
Wind_Direction
237 211 316 260 255 231 229 228 254 271 282 63 108 54 93 40 96 125 145 155 166 154 151 148 143 138 139 133 135 134 124 114 104 65 27 26 21 15 8 3 1 357 354 349 343 341 338 333 329
196 200 205 243 233 223 222 240 246 252 122 121 94 86 96 92 94 131 138 160 163 152 148 144 141 149 144 143 135 128 119 109 73 27 22 17 14 9 11 8 3 0 357 352 346 343 339 336 331
200 164 217 203 228 233 223 206 252 335 126 125 108 56 96 101 131 137 145 156 156 144 148 147 148 145 148 142 138 129 115 93 57 33 24 13 13 14 15 15 9 0 356 353 349 342 338 335 332
232 218 260 230 230 226 242 234 220 137 161 146 139 86 82 167 136 147 141 149 140 158 157 150 151 155 147 141 138 132 115 90 58 31 26 22 21 20 17 14 10 9 3 2 359 354 349 348 344
232 238 231 235 237 252 230 237 238 331 176 174 155 107 111 135 145 145 152 144 151 163 158 154 156 153 152 148 145 135 118 91 59 44 39 36 28 24 21 22 18 16 11 7 6 3 0 1 359
220 254 220 230 224 241 252 186 189 148 285 180 116 114 124 176 145 150 150 152 160 170 166 156 159 158 157 156 151 140 121 90 67 52 41 37 35 36 33 29 24 22 19 15 14 13 15 17 18
254 252 249 232 237 223 252 179 202 165 248 176 144 102 136 164 143 156 155 151 167 177 165 163 162 163 164 160 152 141 122 94 73 55 45 42 42 39 36 32 30 26 26 26 23 24 24 25 27
250 272 265 253 247 233 232 171 212 303 193 159 161 154 164 164 150 157 155 152 169 165 164 166 166 169 167 163 156 145 117 90 64 51 49 48 49 47 39 36 35 33 31 31 32 30 27 29 38
243 272 253 246 249 264 246 203 209 239 262 170 160 154 179 152 159 155 155 159 157 168 172 171 172 174 170 167 163 149 135 109 76 58 50 46 43 36 42 37 35 34 38 34 34 36 35 35 34
254 229 261 252 254 339 350 10 172 232 142 88 88 133 161 150 162 160 161 165 166 170 170 178 176 176 175 170 166 160 143 124 75 62 52 50 54 46 47 43 38 34 36 34 34 33 31 34 36
216 246 263 290 21 9 338 156 290 263 151 65 259 148 157 161 161 164 169 173 170 171 170 182 177 178 177 174 169 167 148 113 79 59 53 52 49 42 37 35 35 32 32 31 33 32 30 33 35
246 245 251 288 355 356 335 326 309 298 120 174 223 180 165 165 166 169 176 168 166 173 177 179 181 179 180 172 176 173 165 148 100 71 60 57 53 47 42 36 34 33 30 30 31 31 34 33 35
335 292 284 267 291 299 315 307 294 281 201 209 192 174 174 170 167 179 176 171 169 179 182 179 180 182 179 173 180 188 180 171 116 73 56 52 51 45 40 39 34 31 27 30 30 32 35 34 38
308 305 308 266 272 283 297 298 319 298 272 227 171 192 174 180 175 178 171 170 172 181 185 181 185 192 183 186 194 197 194 193 167 89 65 56 51 47 37 35 30 25 25 26 30 31 35 34 39
267 285 281 254 264 258 309 297 245 277 277 222 184 191 210 180 187 186 170 172 175 185 186 181 191 195 193 192 200 203 200 203 205 101 44 42 45 39 34 27 24 20 23 26 28 32 33 39 52
236 240 262 243 210 239 164 265 286 250 240 249 202 182 192 183 192 191 179 178 186 190 184 183 194 196 200 199 202 206 211 212 214 248 330 5 24 22 23 18 16 15 22 28 24 29 30 33 36
283 274 256 280 187 211 187 264 240 272 208 240 207 213 190 201 176 194 187 183 195 192 187 189 193 196 200 198 205 209 213 218 226 255 287 323 350 358 5 8 10 12 18 26 26 23 23 25 24
306 287 294 276 259 200 230 232 267 216 247 261 222 205 207 214 215 217 189 191 186 198 195 197 198 201 202 204 207 209 213 227 238 254 274 291 304 322 343 354 1 9 15 16 18 22 25 20 12
291 294 265 278 284 272 242 255 238 222 204 245 248 209 200 190 202 200 190 203 207 206 199 201 203 205 214 212 212 213 220 235 247 257 269 272 283 298 318 339 348 357 1 5 13 21 22 18 19
277 283 287 266 274 206 273 267 249 249 196 209 211 219 204 185 200 189 197 206 210 206 206 207 209 213 216 217 215 207 221 251 256 256 258 263 269 281 302 323 328 328 337 340 351 8 21 5 15
259 251 273 295 293 298 267 277 255 239 220 195 211 217 208 196 195 196 195 205 213 204 206 213 215 218 221 216 217 207 216 245 257 258 257 260 262 271 285 301 306 310 316 313 324 340 348 12 1
262 346 285 287 306 259 237 281 238 232 235 188 193 212 213 208 207 203 199 208 213 206 208 214 218 220 221 222 218 220 232 241 249 253 255 253 254 263 272 287 289 293 300 298 305 317 322 340 0
232 14 308 291 248 308 285 296 266 269 226 225 189 205 215 211 212 201 200 217 218 206 208 214 220 221 222 224 225 225 226 235 246 250 257 258 255 260 266 274 276 285 288 291 291 294 299 310 313
322 296 269 256 112 261 228 228 252 221 226 224 204 202 207 211 214 215 211 218 222 215 210 214 218 218 221 226 225 230 229 225 234 240 244 249 254 252 260 265 273 280 280 280 280 282 285 279 291
228 291 205 259 217 226 180 214 250 282 266 262 220 195 200 208 214 208 207 208 211 219 215 216 216 218 217 221 225 225 227 227 236 240 241 246 249 254 259 260 270 271 271 271 272 275 276 276 274
204 206 175 243 213 276 132 233 251 233 252 254 290 209 195 200 204 208 198 205 212 213 215 216 217 218 219 220 221 224 226 228 234 237 242 242 244 251 262 262 264 263 265 265 264 263 263 268 273
266 221 331 297 270 314 214 261 286 263 271 278 232 264 230 193 199 204 206 204 205 209 218 220 219 217 219 221 220 223 225 226 230 233 238 235 238 250 253 255 254 256 257 255 255 254 255 255 259
209 349 197 191 264 256 267 250 231 195 241 237 228 241 235 206 198 201 204 206 209 214 221 222 221 218 218 219 220 222 225 226 228 231 233 233 237 241 246 246 246 247 247 245 242 237 237 242 247
176 209 218 282 241 228 307 269 19 70 292 287 285 229 232 207 211 209 209 206 213 218 220 223 221 216 216 218 221 221 221 224 227 231 229 230 234 235 237 238 237 237 235 233 230 231 234 231 233
200 199 201 181 250 228 202 272 273 124 30 53 41 79 144 168 199 217 199 202 204 210 220 223 217 214 216 219 221 222 221 222 227 227 227 226 229 230 231 230 228 226 226 224 223 222 222 225 228
Height
1510 1514 1517 1521 1526 1514 1506 1497 1482 1480 1482 1480 1481 1486 1495 1500 1503 1523 1521 1522 1523 1527 1531 1534 1538 1540 1543 1545 1547 1549 1550 1551 1552 1552 1552 1552 1552 1552 1551 1551 1550 1550 1549 1549 1549 1548 1547 1547 1546
1508 1513 1517 1517 1520 1514 1500 1487 1484 1479 1475 1481 1485 1489 1493 1508 1509 1515 1519 1521 1525 1528 1531 1534 1538 1541 1544 1546 1548 1550 1551 1552 1552 1552 1552 1552 1552 1552 1551 1551 1551 1550 1549 1549 1548 1547 1547 1546 1545
1507 1509 1513 1509 1505 1502 1495 1481 1479 1478 1476 1480 1489 1492 1497 1508 1513 1515 1519 1522 1525 1528 1531 1535 1539 1542 1545 1547 1549 1550 1552 1552 1553 1553 1552 1552 1552 1552 1551 1551 1550 1550 1549 1549 1548 1547 1546 1545 1544
1508 1511 1509 1502 1495 1489 1485 1477 1475 1482 1481 1480 1488 1496 1502 1507 1511 1515 1520 1523 1526 1529 1532 1535 1539 1542 1545 1547 1549 1551 1552 1553 1553 1553 1553 1552 1552 1552 1551 1551 1550 1550 1549 1548 1547 1546 1545 1544 1543
1507 1506 1504 1498 1490 1485 1478 1472 1473 1483 1477 1478 1484 1495 1503 1509 1511 1516 1520 1524 1527 1529 1533 1536 1539 1542 1545 1548 1550 1551 1552 1553 1553 1553 1553 1552 1552 1552 1551 1551 1550 1550 1549 1548 1547 1546 1545 1544 1543
1507 1501 1499 1498 1488 1482 1476 1475 1475 1477 1472 1479 1486 1491 1505 1508 1512 1517 1521 1524 1527 1529 1533 1536 1539 1542 1546 1548 1550 1551 1552 1553 1553 1554 1553 1553 1552 1552 1552 1551 1550 1549 1549 1548 1547 1546 1544 1543 1542
1503 1501 1496 1488 1489 1482 1474 1476 1482 1486 1482 1480 1485 1491 1502 1506 1510 1516 1520 1524 1527 1529 1532 1536 1539 1543 1545 1548 1550 1551 1552 1553 1554 1554 1553 1553 1553 1552 1552 1551 1550 1550 1549 1548 1546 1545 1544 1543 1542
1502 1502 1497 1488 1485 1481 1470 1472 1474 1473 1472 1478 1480 1486 1496 1501 1508 1514 1519 1524 1526 1529 1532 1535 1539 1543 1545 1548 1549 1551 1552 1554 1554 1554 1553 1553 1553 1553 1552 1552 1551 1550 1549 1548 1546 1545 1544 1543 1542
1501 1504 1499 1489 1483 1478 1469 1470 1471 1475 1471 1475 1478 1478 1482 1494 1504 1511 1516 1522 1525 1529 1532 1535 1539 1542 1545 1548 1549 1551 1552 1553 1554 1554 1554 1553 1553 1553 1553 1552 1552 1551 1549 1548 1547 1546 1545 1543 1542
1500 1503 1495 1484 1479 1482 1476 1476 1468 1474 1471 1473 1478 1482 1486 1490 1497 1505 1511 1516 1522 1526 1531 1535 1538 1541 1544 1547 1549 1551 1552 1553 1553 1554 1553 1553 1554 1554 1553 1553 1552 1551 1549 1549 1547 1546 1545 1544 1543
1499 1499 1489 1485 1483 1481 1478 1473 1482 1474 1479 1491 1490 1487 1489 1491 1493 1501 1508 1513 1519 1525 1530 1534 1537 1541 1544 1546 1548 1550 1552 1553 1554 1554 1554 1553 1553 1553 1553 1552 1552 1551 1550 1549 1548 1547 1546 1544 1543
1497 1493 1491 1487 1486 1485 1482 1479 1476 1473 1475 1484 1493 1485 1490 1490 1489 1496 1502 1511 1517 1523 1528 1532 1536 1540 1543 1545 1548 1549 1551 1552 1553 1554 1554 1553 1553 1553 1553 1553 1552 1552 1551 1550 1549 1547 1546 1545 1544
1496 1493 1489 1487 1487 1485 1484 1480 1477 1477 1472 1476 1484 1487 1489 1488 1487 1493 1501 1510 1516 1521 1527 1531 1535 1539 1542 1544 1547 1549 1551 1552 1553 1554 1554 1553 1553 1553 1553 1553 1553 1552 1551 1550 1549 1548 1546 1546 1545
1499 1496 1491 1488 1486 1484 1483 1480 1478 1470 1474 1477 1481 1485 1491 1495 1490 1491 1497 1506 1514 1519 1525 1529 1534 1538 1541 1544 1546 1549 1550 1551 1553 1553 1554 1553 1553 1554 1553 1553 1553 1552 1551 1550 1549 1548 1547 1546 1545
1498 1497 1492 1489 1487 1484 1483 1479 1477 1472 1470 1474 1479 1481 1488 1491 1494 1498 1498 1504 1511 1516 1523 1528 1533 1538 1540 1543 1546 1548 1549 1551 1552 1553 1553 1553 1553 1553 1553 1553 1552 1551 1550 1549 1549 1548 1547 1546 1546
1496 1494 1497 1482 1482 1483 1486 1488 1475 1474 1472 1473 1475 1479 1488 1489 1491 1502 1503 1506 1511 1516 1521 1527 1531 1535 1538 1542 1544 1547 1548 1550 1551 1552 1552 1553 1553 1552 1552 1551 1551 1550 1550 1549 1548 1547 1547 1546 1546
1495 1500 1491 1483 1474 1480 1483 1483 1475 1473 1471 1473 1478 1476 1476 1466 1488 1501 1503 1508 1510 1515 1519 1524 1529 1532 1536 1539 1543 1545 1547 1548 1550 1550 1551 1552 1552 1552 1551 1551 1550 1549 1548 1548 1547 1547 1546 1546 1545
1500 1494 1488 1485 1478 1477 1479 1480 1474 1472 1472 1472 1475 1479 1478 1480 1491 1503 1502 1506 1509 1513 1517 1522 1526 1530 1533 1537 1540 1543 1545 1547 1548 1549 1550 1550 1551 1551 1550 1550 1549 1548 1548 1547 1547 1546 1546 1545 1545
1496 1493 1490 1483 1478 1476 1479 1478 1473 1471 1471 1470 1472 1474 1479 1481 1492 1493 1500 1503 1509 1513 1514 1519 1523 1528 1531 1534 1537 1540 1543 1545 1547 1547 1548 1548 1549 1549 1549 1548 1548 1547 1546 1546 1546 1546 1545 1545 1544
1495 1494 1490 1482 1476 1479 1481 1477 1468 1467 1467 1468 1471 1475 1477 1480 1482 1486 1495 1499 1503 1508 1513 1516 1521 1525 1529 1531 1535 1538 1540 1542 1544 1545 1545 1546 1546 1547 1547 1547 1546 1546 1545 1545 1545 1545 1544 1544 1543
1494 1494 1493 1487 1479 1477 1480 1478 1469 1462 1462 1462 1467 1471 1478 1477 1480 1483 1488 1490 1498 1503 1507 1513 1518 1522 1526 1528 1531 1534 1536 1539 1541 1542 1542 1543 1544 1545 1545 1545 1545 1544 1544 1544 1543 1543 1543 1543 1542
1494 1487 1484 1486 1490 1502 1477 1498 1466 1458 1457 1456 1459 1466 1470 1474 1477 1478 1483 1486 1491 1495 1503 1510 1515 1519 1522 1524 1527 1530 1533 1535 1536 1537 1539 1540 1541 1542 1543 1543 1543 1543 1543 1542 1542 1542 1542 1542 1541
1493 1490 1490 1489 1493 1492 1486 1495 1460 1455 1454 1452 1452 1456 1462 1465 1468 1470 1473 1480 1486 1492 1497 1505 1511 1515 1517 1520 1523 1526 1529 1532 1532 1533 1535 1536 1538 1539 1540 1540 1540 1540 1540 1540 1541 1540 1540 1540 1540
1489 1490 1489 1487 1494 1507 1484 1487 1469 1453 1442 1440 1443 1448 1452 1457 1462 1465 1468 1473 1482 1487 1492 1499 1504 1508 1512 1516 1519 1523 1525 1527 1528 1530 1531 1533 1534 1535 1536 1537 1537 1537 1538 1538 1538 1538 1538 1538 1538
1493 1497 1501 1502 1496 1495 1488 1484 1457 1444 1440 1438 1438 1441 1445 1450 1456 1460 1465 1470 1473 1479 1487 1493 1498 1500 1505 1510 1514 1517 1521 1522 1523 1526 1527 1528 1530 1531 1533 1534 1534 1534 1535 1535 1535 1535 1536 1536 1536
1494 1494 1501 1496 1503 1488 1477 1478 1458 1436 1432 1432 1433 1434 1436 1440 1447 1453 1458 1463 1467 1473 1480 1487 1490 1493 1497 1504 1507 1511 1516 1518 1519 1521 1522 1524 1526 1527 1529 1530 1531 1531 1531 1531 1532 1532 1533 1533 1533
1486 1494 1483 1496 1481 1493 1475 1454 1438 1432 1431 1431 1431 1432 1434 1436 1440 1446 1453 1458 1463 1467 1472 1477 1482 1486 1490 1497 1501 1504 1509 1512 1514 1516 1518 1520 1523 1524 1526 1527 1527 1527 1528 1528 1528 1529 1529 1529 1530
1483 1486 1492 1493 1495 1485 1469 1457 1455 1431 1433 1431 1431 1431 1432 1436 1438 1441 1447 1452 1457 1462 1466 1470 1475 1479 1484 1490 1495 1497 1503 1508 1511 1511 1513 1515 1519 1520 1521 1522 1523 1523 1524 1525 1525 1526 1526 1527 1528
1488 1487 1484 1479 1480 1486 1482 1466 1431 1430 1430 1432 1428 1427 1430 1433 1437 1440 1442 1447 1450 1455 1460 1463 1468 1473 1478 1484 1488 1492 1496 1501 1505 1507 1508 1511 1514 1515 1517 1518 1519 1520 1521 1522 1523 1523 1524 1524 1525
1470 1471 1471 1485 1477 1474 1483 1458 1431 1430 1429 1429 1428 1428 1430 1432 1434 1437 1441 1445 1448 1450 1453 1457 1462 1468 1472 1477 1481 1487 1490 1493 1498 1501 1504 1505 1509 1510 1512 1514 1515 1516 1518 1519 1520 1521 1521 1522 1523